Weather History for Decimomannu, Italy

Change the Weather History Date:

Thursday, October 31, 2013

  Actual Average Record
Temperature  
Mean Temperature 66 °F -  
Max Temperature 73 °F 65 °F 77 °F (2000)
Min Temperature 60 °F 47 °F 32 °F (2002)
Cooling Degree Days 2    
Growing Degree Days 16 (Base 50)    
Moisture  
Dew Point 60 °F    
Average Humidity 80    
Maximum Humidity 88    
Minimum Humidity 65    
Precipitation  
Precipitation 0.02 in 0.09 in - ()
Sea Level Pressure  
Sea Level Pressure 30.03 in    
Wind  
Wind Speed 3 mph ()    
Max Wind Speed 14 mph    
Max Gust Speed -    
Visibility 6.1 miles    
Events Rain , Thunderstorm    
Averages and records for this station are not official NWS values.
T = Trace of Precipitation, MM = Missing Value Source: Averaged Metar Reports

Daily Weather History Graph

Daily Weather History Graph

Search for Another Location

Airport:

Trip Planner

Search our weather history database for the weather conditions in past years. The results will help you decide how hot, cold, wet, or windy it might be!

Date:

Astronomy

Oct. 31, 2013 Rise Set
Actual Time 6:50 AM CET 5:23 PM CET
Civil Twilight 6:23 AM CET 5:51 PM CET
Nautical Twilight 5:51 AM CET 6:23 PM CET
Astronomical Twilight 5:20 AM CET 6:54 PM CET
Moon 3:24 AM CET (10/31) 3:32 PM CET (10/31)
Length of Visible Light 11h 28m
Length of Day
10h 33m
Waning Crescent, 11% of the Moon is Illuminated
Oct 31
Waning Crescent
Nov 3
New
Nov 10
First Quarter
Nov 17
Full
Nov 25
Last Quarter

Hourly Weather History & Observations

Time (CET) Temp. Dew Point Humidity Pressure Visibility Wind Dir Wind Speed Gust Speed Precip Events Conditions
12:55 AM 64.4 °F 59.0 °F 83% 29.98 in 3.7 mi Calm Calm - N/A Rain , Thunderstorm Thunderstorms and Rain
1:00 AM 64 °F 59 °F 79% 29.99 in 4 mi Calm Calm - - Rain , Thunderstorm Thunderstorms and Rain
1:55 AM 64.4 °F 59.0 °F 83% 29.98 in 6.2 mi North 5.8 mph - N/A   Scattered Clouds
2:55 AM 64.4 °F 59.0 °F 83% 29.98 in 6.2 mi NW 2.3 mph - N/A   Scattered Clouds
3:55 AM 62.6 °F 59.0 °F 88% 29.98 in 6.2 mi NNE 2.3 mph - N/A   Scattered Clouds
4:55 AM 62.6 °F 57.2 °F 82% 29.98 in 6.2 mi NE 2.3 mph - N/A   Scattered Clouds
5:55 AM 62.6 °F 57.2 °F 82% 29.98 in 6.2 mi ENE 2.3 mph - N/A   Scattered Clouds
6:55 AM 62.6 °F 57.2 °F 82% 29.98 in 6.2 mi NW 3.5 mph - N/A   Scattered Clouds
7:00 AM 62 °F 57 °F 77% 29.99 in 6 mi NW 3.5 mph - -   Partly Cloudy
7:55 AM 62.6 °F 57.2 °F 82% 30.01 in - North - - N/A   Scattered Clouds
8:55 AM 64.4 °F 59.0 °F 83% 30.01 in - North - - N/A   Partly Cloudy
9:55 AM 68.0 °F 60.8 °F 78% 30.04 in 6.2 mi ENE 4.6 mph - N/A   Scattered Clouds
10:00 AM 68 °F 61 °F 73% 30.04 in 7 mi ENE 4.6 mph - -   Partly Cloudy
10:55 AM 69.8 °F 62.6 °F 78% 30.04 in 6.2 mi SE 2.3 mph - N/A   Scattered Clouds
11:55 AM 71.6 °F 64.4 °F 78% 30.04 in 6.2 mi SSE 4.6 mph - N/A   Scattered Clouds
12:28 PM 71.6 °F 64.4 °F 78% 30.04 in 6.2 mi SSE 9.2 mph - N/A Thunderstorm Thunderstorm
12:55 PM 71.6 °F 62.6 °F 73% 30.04 in 6.2 mi West 13.8 mph - N/A Rain , Thunderstorm Light Thunderstorms and Rain
1:00 PM 72 °F 63 °F 65% 30.04 in 6 mi West 13.8 mph - - Rain , Thunderstorm Thunderstorms and Rain
1:23 PM 71.6 °F 62.6 °F 73% 30.04 in 6.2 mi West 4.6 mph - N/A   Scattered Clouds
1:55 PM 66.2 °F 62.6 °F 88% 30.04 in 6.2 mi WSW 6.9 mph - N/A Rain Light Rain
2:55 PM 68.0 °F 62.6 °F 83% 30.01 in 6.2 mi NW 4.6 mph - N/A   Scattered Clouds
3:55 PM 68.0 °F 62.6 °F 83% 30.04 in 6.2 mi North 2.3 mph - N/A   Partly Cloudy
4:00 PM 68 °F 62 °F 76% 30.05 in 7 mi North 2.3 mph - -   Partly Cloudy
4:55 PM 68.0 °F 60.8 °F 78% 30.04 in 6.2 mi North 3.5 mph - N/A   Scattered Clouds
5:55 PM 68.0 °F 62.6 °F 83% 30.04 in 6.2 mi NE 4.6 mph - N/A   Scattered Clouds
6:55 PM 66.2 °F 57.2 °F 73% 30.06 in 6.2 mi Calm Calm - N/A   Scattered Clouds
7:00 PM 65 °F 57 °F 69% 30.07 in 7 mi Calm Calm - -   Partly Cloudy
7:55 PM 62.6 °F 59.0 °F 88% 30.06 in 6.2 mi SE 2.3 mph - N/A   Scattered Clouds
8:55 PM 62.6 °F 57.2 °F 82% 30.06 in 6.2 mi ENE 1.2 mph - N/A   Scattered Clouds
9:25 PM 62.6 °F 57.2 °F 82% 30.06 in 6.2 mi North 1.2 mph - N/A Thunderstorm Thunderstorm
9:55 PM 62.6 °F 57.2 °F 82% 30.09 in 6.2 mi Calm Calm - N/A Thunderstorm Thunderstorm
10:00 PM 62 °F 57 °F 80% 30.10 in 7 mi Calm Calm - - Thunderstorm Thunderstorm
10:55 PM 60.8 °F 55.4 °F 82% 30.09 in 6.2 mi Calm Calm - N/A Thunderstorm Thunderstorm
11:55 PM 60.8 °F 55.4 °F 82% 30.09 in 6.2 mi ESE 1.2 mph - N/A Rain , Thunderstorm Light Thunderstorms and Rain